Погода в Токме

Россия / Иркутская область     58°15′16″N   105°51′26″E
темп.,
°C
ветер,
м/с
пор.,
м/с
влажн.,
%
обл.,
%
осадки,
мм/ч
давл.,
гПа
погр.,
м
29 июля, чт
чт2923:00+19всв11571 0.0 100211
02:00+17ссв1162100 0.0 100311
05:00+17ссв2265100 0.0 100315
08:00+21всв2655100 0.0 1003254
11:00+28в473895 0.0 10021773
14:00+31всв562949 0.0 10013136
17:00+31всв562377 0.0 10012941
20:00+25всв254138 0.0 100197
30 июля, пт
пт3023:00+18св24599 0.0 100365
02:00+16ссв11679 0.0 100511
05:00+14ссв11740 0.0 100612
08:00+20всв24530 0.0 1007312
11:00+26всв34290 0.0 10061725
14:00+28всв33220 0.0 10062286
17:00+29св22200 0.0 10062589
20:00+23св24380 0.0 100766
31 июля, сб
сб3123:00+17св11420 0.0 100811
02:00+13св115118 0.0 100911
05:00+12св015814 0.0 101110
08:00+19ю00453 0.0 1012212
11:00+26ююв11335 0.0 1012876
14:00+29сз112559 0.0 10112173
17:00+28сз2225100 0.0 10112515
20:00+22ссз265126 0.0 1012124
1 августа, вс
вс123:00+17ссз268282 0.0 1013130
02:00+15с229574 0.0 101317
05:00+13ссв118113 0.0 101311
08:00+19всв1342100 0.0 1012221
11:00+25в2227100 0.0 1011767
14:00+29в231999 0.0 10092427
17:00+29в122096 0.0 10072785
20:00+23в1141100 0.0 100711
2 августа, пн
пн223:00+17всв2870100 0.0 1008140
02:00+15всв1164100 0.0 100712
05:00+14сз116289 0.0 100711
08:00+18св2255100 0.0 100681
11:00+18ююз1464100 0.0 1007170
14:00+18ююз3685100 0.1 1008423
17:00+17ю2697100 1.5 1009393
20:00+16юз3696100 1.7 1010389